Sapporo, Japan

10:16 PM JST on July 30, 2016 (GMT +0900)
Rue des Sausses | | Change Station

Elev 0 ft 43.05 °N, 141.33 °E | Updated 17 seconds ago

Mostly Cloudy
Mostly Cloudy
75.4 °F
Feels Like 76 °F
N
1.9
Wind Variable Wind from SE
Gusts 4.3 mph

Today
High -- | Low -- °F
--% Chance of Precip.
Yesterday
High -- | Low -- °F
Precip. -- in
Pressure 29.92 in
Visibility 3.7 miles
Clouds Few 200 ft
Scattered Clouds 300 ft
Mostly Cloudy 400 ft
Heat Index 76 °F
Dew Point 71 °F
Humidity 85%
Rainfall 0.00 in
Snow Depth Not available.
4:23 AM 6:58 PM
Waning Crescent, 13% visible
METAR RJCC 301300Z 18009KT 6000 FEW002 SCT003 BKN004 20/20 Q1013 RMK 1ST002 4ST003 6ST004 A2993
Pressure 29.92 in
Visibility 3.7 miles
Clouds Few 200 ft
Scattered Clouds 300 ft
Mostly Cloudy 400 ft
Heat Index 76 °F
Dew Point 71 °F
Humidity 85%
Rainfall 0.00 in
Snow Depth Not available.
4:23 AM 6:58 PM
Waning Crescent, 13% visible
METAR RJCC 301300Z 18009KT 6000 FEW002 SCT003 BKN004 20/20 Q1013 RMK 1ST002 4ST003 6ST004 A2993

10-Day Weather Forecast

No radar image for this location.
×

Almanac

Astronomy

Jul. 30, 2016 Rise Set
Actual Time
Civil Twilight
Nautical Twilight
Astronomical Twilight
Moon
Length of Visible Light
Length of Day
Tomorrow will be .
, % of the Moon is Illuminated

Today's Extremes

Country Highs Country Lows

Community

WunderPhotos

Upload Photos

1,928,555 photos uploaded!

WunderBlog® & News

Nearby

Air Quality

  Air Quality AQ Index Pollutant
Not available.

Snow Depth

Station Depth Elevation

Earthquake Activity

City Distance Mag. Time & Date
Minimum magnitude displayed is 2.5.

Coastal Water Temperatures

Place Temperature

Stations

Nearby Weather Stations

Station Location Temp. Windchill Dew Point Humidity Wind Precip. Elev Updated Type